Regional Weather Roundup
Issued by NWS

Home | Current Version | Previous Version | Text Only | Print | Product List | Glossary On
Versions: 1 2 3 4 5 6 7 8 9 10 11 12 13 14 15 16 17 18 19 20 21 22 23 24 25 26 27 28 29 30 31 32 33 34 35 36 37 38 39 40 41 42 43 44 45 46 47 48 49 50
000
ASUS45 KPSR 291700
RWRAZ

ARIZONA HOURLY REGIONAL WEATHER ROUNDUP
NATIONAL WEATHER SERVICE PHOENIX AZ
1000 AM MST SAT AUG 29 2015

NOTE: FAIR INDICATES FEW OR NO CLOUDS BELOW 12,000 FEET WITH NO
SIGNIFICANT WEATHER AND/OR OBSTRUCTIONS TO VISIBILITY.

AZZ001>003-036-291800-
NORTHWEST ARIZONA

CITY           SKY/WX    TMP DP  RH WIND       PRES   REMARKS
KINGMAN        SUNNY     94  51  23 CALM      30.06R
$$

AZZ004>008-015-016-018-291800-
NORTH CENTRAL ARIZONA

CITY           SKY/WX    TMP DP  RH WIND       PRES   REMARKS
GRAND CANYON   SUNNY     82  39  21 S9G17     30.33S
WILLIAMS       SUNNY     81  43  26 SE9       30.39S
PRESCOTT       SUNNY     86  51  29 CALM      30.21R
FLAGSTAFF      NOT AVBL
PAYSON         SUNNY     84  50  30 VRB6      30.25R
PAGE           SUNNY     83  48  29 N6        30.17R
$$

AZZ009>014-017-291800-
NORTHEAST ARIZONA

CITY           SKY/WX    TMP DP  RH WIND       PRES   REMARKS
WINSLOW        NOT AVBL
SAINT JOHNS    SUNNY     81  50  33 CALM      30.28R
WINDOW ROCK    SUNNY     77  46  33 S6        30.38S
SHOW LOW       SUNNY     75  48  38 SW9       30.34S
$$

AZZ023-291800-
GREATER PHOENIX AREA

CITY           SKY/WX    TMP DP  RH WIND       PRES   REMARKS
PHOENIX        MOSUNNY   98  60  28 E9        29.89R
GLENDALE       MOSUNNY   99  61  28 VRB6      29.90R
LUKE AFB       SUNNY     97  60  29 SE5       29.88R
DEER VALLEY    SUNNY     98  57  25 SE10      29.91R
SCOTTSDALE     SUNNY     97  56  25 E8        29.93R
MESA-GATEWAY   MOSUNNY   97  61  30 SE10      29.93R
CHANDLER       MOSUNNY   97  61  30 NE5       29.91R
$$

AZZ027-028-291800-
SOUTHWEST MARICOPA COUNTY AND PINAL COUNTY

CITY           SKY/WX    TMP DP  RH WIND       PRES   REMARKS
CASA GRANDE    SUNNY     95  61  31 CALM      29.92S
GILA BEND      FAIR     102  60  25 VRB2      29.85S HX 102
$$

AZZ503-504-507>509-291800-
SOUTHEAST ARIZONA

CITY           SKY/WX    TMP DP  RH WIND       PRES   REMARKS
TUCSON         SUNNY     93  55  27 S5        30.04S
DAVIS-MONTHAN  SUNNY     92  57  29 E6        30.03R
RYAN FIELD     SUNNY     93  59  31 CALM      30.02R
NOGALES        SUNNY     89  56  32 VRB5      30.12S
SIERRA VISTA   SUNNY     85  56  37 NE6       30.21R
SAFFORD        SUNNY     88  57  34 VRB7      30.09S
$$

AZZ020-021-025-026-031-291800-
SOUTHWEST ARIZONA

CITY           SKY/WX    TMP DP  RH WIND       PRES   REMARKS
YUMA           NOT AVBL
$$

CAZ031-033-041-043-047-048-061-291800-
SOUTHERN CALIFORNIA

CITY           SKY/WX    TMP DP  RH WIND       PRES   REMARKS
DOWNTOWN L.A.  SUNNY     84  64  50 CALM      29.89S
L.A. AIRPORT   MOSUNNY   81  67  62 VRB3      29.91R
SAN DIEGO      MOSUNNY   81  69  67 W5        29.91R
BURBANK        SUNNY     85  58  39 CALM      29.92R
ONTARIO        SUNNY     86  56  35 VRB3      29.93R
RIVERSIDE      SUNNY     87  53  31 CALM      29.92S
PALM SPRINGS   SUNNY    101  51  18 W3        29.83R
EL CENTRO NAS  SUNNY    104  49  15 S7        29.80R HX 101
IMPERIAL       SUNNY    104  51  17 SW5       29.78R HX 101
BLYTHE         SUNNY    102  60  25 SE3       29.82R HX 103
$$

NVZ020-UTZ003-291800-
SOUTHERN NEVADA-UTAH

CITY           SKY/WX    TMP DP  RH WIND       PRES   REMARKS
LAS VEGAS      NOT AVBL
SALT LAKE CITY PTSUNNY   88  40  18 S16G25    30.07R
$$

NMZ009-TXZ055-291800-
NEW MEXICO-WEST TEXAS

CITY           SKY/WX    TMP DP  RH WIND       PRES   REMARKS
ALBUQUERQUE    MOSUNNY   78  51  38 N9        30.31F
EL PASO        MOSUNNY   82  57  42 N8        30.19R
$$


........................KEY........................
SKY/WX - SKY CONDITION/WEATHER
TMP    - TEMPERATURE IN FAHRENHEIT
DP     - DEW POINT IN FAHRENHEIT
RH     - RELATIVE HUMIDITY IN PERCENT
WIND   - DIRECTION AND SPEED IN MILES PER HOUR (MPH)
VRB    - VARIABLE WIND DIRECTION
PRES   - MEAN SEA LEVEL PRESSURE IN INCHES OF MERCURY
         F - FALLING PRESSURE   R - RISING PRESSURE
         S - STEADY PRESSURE
VSB    - VISIBILITY IN MILES
HX     - HEAT INDEX IN FAHRENHEIT
WCI    - WIND CHILL INDEX IN FAHRENHEIT
TC     - TEMPERATURE IN CELSIUS WHICH IS ALSO KNOWN AS
         TEMPERATURE IN CENTIGRADE
AFB    - AIR FORCE BASE
         LUKE AFB IS LUKE AIR FORCE BASE
         DAVIS-MONTHAN IS DAVIS-MONTHAN AIR FORCE BASE
NAS    - NAVAL AIR STATION
         EL CENTRO NAS IS EL CENTRO NAVAL AIR STATION
N/A    - NOT AVAILABLE




USA.gov is the U.S. government's official web portal to all federal, state and local government web resources and services.